[Date Prev][Date Next][Thread Prev][Thread Next] - [Date Index][Thread Index][Author Index]
2 Line ISS Keps 11-24
- Subject: [sarex] 2 Line ISS Keps 11-24
- From: "Dave Larsen PhD" <doc@xxxxxxxxxxx>
- Date: Wed, 24 Nov 2004 02:59:17 -0800
ISS
1 25544U 98067A 04329.20561881 .00023887 00000-0 19466-3 0 2113
2 25544 51.6384 229.1140 0004607 40.4341 96.5675 15.70496021343453
----
Via the sarex mailing list at AMSAT.ORG courtesy of AMSAT-NA.
To unsubscribe, send "unsubscribe sarex" to Majordomo@amsat.org
AMSAT Home